Lid_Strength_Index
-1 -1 -0 2 9 10 13 10 7 8 7 5 4 6 6 6 8 11 1 0 -0 -0 -0 -1 -1 -1 -1 -1 -1 -1 -1 -1 -1 -1 -1 -1 -1 -1 -1 -1 -1 -1 -1 -1 -1 -1 -1 -1 -1
-1 0 1 4 11 14 13 8 9 7 6 4 4 5 6 7 4 3 2 -0 -1 -0 -1 -1 -1 -1 -1 -1 -1 -1 -1 -1 -1 -1 -1 -1 -1 -1 -1 -1 -1 -1 -1 -1 -1 -1 -1 -1 -1
-0 0 5 8 10 13 14 9 7 6 5 5 6 4 5 6 3 3 1 -0 -0 -1 -1 -1 -1 -1 -1 -1 -1 -1 -1 -1 -1 -1 -1 -1 -1 -1 -1 -1 -1 -1 -1 -1 -1 -1 -1 -1 -1
1 3 4 10 13 9 10 8 6 6 5 4 5 6 4 2 3 1 -0 -0 0 -0 -1 -1 -1 -1 -1 -1 -1 -1 -1 -1 -1 -1 -1 -1 -1 -2 -1 -1 -1 -1 -1 -1 -1 -1 -1 -1 -1
1 4 10 10 11 9 7 6 6 8 6 5 5 6 6 2 1 1 0 -0 0 0 -1 -1 -1 -1 -1 -1 -1 -1 -1 -1 -1 -1 -1 -2 -2 -1 -1 -1 -1 -1 -1 -1 -1 -1 -1 -1 -1
6 4 12 13 11 9 7 6 6 7 5 5 5 6 5 2 2 1 -0 0 -0 -0 -0 -1 -1 -1 -1 -1 -1 -1 -1 -1 -1 -2 -2 -2 -2 -1 -1 -1 -1 -1 -1 -1 -1 -1 -1 -1 -1
6 8 10 10 10 10 8 5 7 7 6 6 4 6 4 3 1 1 0 -0 -0 -0 -0 -1 -1 -1 -1 -1 -1 -1 -1 -1 -1 -2 -2 -2 -2 -1 -1 -1 -1 -1 -1 -1 -1 -1 -1 -1 -1
4 6 10 10 11 11 7 6 5 6 6 3 3 7 6 3 1 1 0 0 0 -0 -0 -1 -2 -1 -2 -1 -1 -1 -1 -1 -1 -1 -2 -1 -1 -2 -1 -1 -1 -1 -1 -1 -1 -1 -1 -1 -1
3 10 12 10 10 10 6 7 5 4 5 4 4 4 3 1 1 2 1 1 1 0 -0 -0 -1 -1 -2 -2 -2 -1 -1 -1 -2 -1 -2 -2 -2 -2 -1 -1 -1 -1 -1 -1 -1 -1 -1 -1 -1
5 10 9 6 7 7 6 6 6 6 6 5 4 3 2 1 2 3 3 3 2 1 1 -0 -0 -1 -1 -1 -2 -2 -1 -2 -2 -2 -2 -2 -1 -2 -1 -2 -1 -1 -1 -1 -1 -1 -2 -1 -1
6 9 6 6 6 5 6 6 5 7 8 5 5 4 3 2 3 3 3 2 2 1 1 0 -1 -1 -1 -2 -2 -2 -1 -1 -1 -1 -1 -2 -1 -1 -1 -1 -1 -1 -2 -1 -1 -1 -1 -1 -1
8 6 6 6 5 6 7 5 7 7 7 3 3 3 3 3 3 2 2 2 1 1 1 0 -1 -1 -1 -2 -1 -2 -1 -1 -1 -1 -1 -1 -1 -1 -1 -0 -1 -1 -1 -1 -1 -1 -1 -1 -1
7 6 5 5 5 5 5 6 7 7 4 3 3 3 3 3 2 2 1 1 1 1 1 0 -0 -1 -1 -1 -2 -1 -1 -1 -1 -1 -1 -2 -1 -1 -1 -1 -1 -0 -1 -1 -2 -1 -1 -1 -1
6 6 6 5 6 5 7 7 6 6 4 4 3 3 3 3 2 2 2 2 1 1 1 -0 0 -1 -1 -1 -1 -1 -1 -1 -1 -1 -1 -1 -1 -1 -0 -1 -0 -0 -1 -1 -2 -1 -1 -0 -0
5 7 6 6 6 7 6 8 8 5 4 4 4 3 3 3 2 2 1 1 1 1 0 0 -0 -1 -1 -1 -1 -2 -1 -1 -1 -1 -2 -1 -1 -1 -1 -0 -0 -0 -1 -1 -1 -1 -1 -0 -1
7 7 11 7 6 6 6 12 7 5 6 5 4 4 3 3 2 2 1 1 1 0 0 0 -0 -0 -0 -1 -1 -1 -1 -1 -1 -1 -1 -1 -1 -2 -2 -1 -1 -1 -1 -1 -0 -1 0 -0 -0
7 11 9 10 6 7 7 10 6 5 5 6 5 5 4 4 3 2 1 1 1 0 0 0 -0 0 -0 -1 -0 -1 -1 -1 -1 -1 -1 -1 -1 -2 -1 -0 -1 -2 -1 -1 -1 -1 -0 0 -0
10 9 8 10 8 7 8 8 7 6 6 6 5 4 4 4 3 2 1 1 0 0 0 -0 -0 0 -1 -0 -1 -0 -1 -1 -1 -1 -1 -1 -1 -1 -1 -1 -1 -1 -0 -0 -0 -0 -1 -0 0
7 8 9 7 6 8 8 8 7 6 6 6 5 5 4 4 3 2 1 1 1 0 0 0 1 -0 -0 1 1 1 1 0 -0 -1 -2 -2 -2 -1 -2 -1 -1 -1 -0 -0 -1 -0 -0 0 -1
7 8 8 7 7 7 8 8 6 6 6 5 5 5 5 4 4 3 2 2 1 1 0 0 0 -0 -0 0 0 -0 0 -0 -0 -1 -2 -2 -1 -1 -1 -1 -0 -1 -0 -1 -1 -0 0 0 -0
7 8 8 8 6 6 7 9 8 6 5 5 5 4 4 4 4 3 2 2 1 1 1 0 0 -0 -0 -1 -0 -0 -1 1 1 0 -0 -1 -1 -1 -2 -1 -1 -1 -0 0 -1 -0 -0 1 0
8 6 7 7 8 11 10 12 11 7 7 6 5 5 4 4 3 3 3 2 2 1 1 0 0 -0 -0 -1 -1 -0 1 1 1 0 -0 -0 -2 -1 -1 -1 -1 -1 -1 -1 -0 -1 -0 0 1
7 5 6 7 8 8 8 11 11 7 8 7 6 5 4 4 3 3 3 2 1 1 1 0 0 -0 -0 -0 -1 0 1 1 -0 -0 -0 -1 -1 -1 -1 -1 -1 -1 -1 -1 -1 -1 -1 -0 1
5 6 6 7 8 11 9 10 12 10 8 6 5 5 4 4 4 3 2 2 1 1 1 1 0 0 -0 -0 -0 0 0 0 2 0 1 0 -0 -0 -1 -1 -1 -1 -1 -1 -1 -1 -1 -0 -0
6 7 11 13 12 14 8 9 8 7 6 5 5 4 4 3 3 3 3 2 2 1 1 1 1 1 0 0 0 0 0 -0 0 1 0 0 0 0 -0 -1 -1 -1 -1 -1 -1 -1 -1 -0 0
7 7 10 13 12 11 8 10 8 5 4 4 4 4 3 3 3 3 3 2 2 2 1 1 1 1 0 0 0 -0 -0 0 0 -0 0 0 0 -0 -1 -1 -1 -1 -1 -1 -1 -0 -0 -1 -0
7 8 6 9 8 10 9 8 6 5 5 5 5 4 4 4 3 3 2 2 2 2 1 1 1 1 1 0 0 0 -0 -0 0 0 -1 0 -1 -0 -1 -1 -1 -1 -1 -1 -1 -0 -1 -1 -0
6 5 9 8 12 12 10 9 10 8 6 5 5 5 4 4 3 3 3 2 2 1 1 1 1 1 1 0 0 0 0 -0 -0 -1 -0 -1 -1 -1 -1 -1 -1 -1 -1 -1 -1 -0 -1 -1 -0
7 8 7 7 8 11 12 12 8 6 6 6 5 4 4 4 3 3 3 2 2 1 1 1 1 1 1 0 0 0 0 0 -0 -0 -0 -0 -1 -1 -1 -1 -1 -1 -1 -1 -1 -1 -0 -0 0
5 7 7 10 10 9 9 9 5 5 5 5 5 4 4 3 3 3 2 2 2 2 1 1 2 1 1 0 0 1 0 0 0 0 -0 -1 -0 -1 -1 -1 -0 -0 -0 -1 -0 0 0 0 0